This is the latest recevied weather packets stored in our database for station/object N5COP-13. If no packets are shown the sender has not sent any weather packets the latest 10 day(s).
| Time | Temp. | Humidity | Pressure | Rain* | Wind** | Luminosity | Snow |
|---|---|---|---|---|---|---|---|
| 1777588374 | 17.78° C | 38% | 1014.6 hPa | 0 mm | - | 235 W/m² | - |
| 1777588070 | 17.78° C | 38% | 1014.6 hPa | 0 mm | - | 234 W/m² | - |
| 1777587761 | 17.78° C | 38% | 1014.6 hPa | 0 mm | - | 260 W/m² | - |
| 1777587459 | 17.78° C | 38% | 1014.5 hPa | 0 mm | - | 309 W/m² | - |
| 1777587157 | 17.22° C | 38% | 1014.9 hPa | 0 mm | - | 297 W/m² | - |
| 1777586852 | 17.22° C | 38% | 1014.9 hPa | 0 mm | - | 271 W/m² | - |
| 1777586548 | 17.78° C | 38% | 1015 hPa | 0 mm | - | 225 W/m² | - |
| 1777586244 | 17.78° C | 38% | 1015.1 hPa | 0 mm | - | 293 W/m² | - |
| 1777585941 | 17.78° C | 37% | 1015 hPa | 0 mm | - | 284 W/m² | - |
| 1777585636 | 17.78° C | 38% | 1014.9 hPa | 0 mm | - | 336 W/m² | - |
| 1777585331 | 17.78° C | 37% | 1015.2 hPa | 0 mm | - | 368 W/m² | - |
| 1777585026 | 17.78° C | 37% | 1015.4 hPa | 0 mm | - | 338 W/m² | - |
| 1777584723 | 17.22° C | 37% | 1015.4 hPa | 0 mm | - | 341 W/m² | - |
| 1777584421 | 17.22° C | 37% | 1015.4 hPa | 0 mm | - | 310 W/m² | - |
| 1777584117 | 17.22° C | 37% | 1015.3 hPa | 0 mm | - | 314 W/m² | - |
| 1777583816 | 17.78° C | 37% | 1015.5 hPa | 0 mm | - | 286 W/m² | - |
| 1777583512 | 17.78° C | 37% | 1015.6 hPa | 0 mm | - | 294 W/m² | - |
| 1777583211 | 17.78° C | 37% | 1015.3 hPa | 0 mm | - | 295 W/m² | - |
| 1777582906 | 17.78° C | 37% | 1015.5 hPa | 0 mm | - | 337 W/m² | - |
| 1777582604 | 18.33° C | 36% | 1015.4 hPa | 0 mm | - | 290 W/m² | - |
| 1777582299 | 18.33° C | 36% | 1015.4 hPa | 0 mm | - | 459 W/m² | - |
| 1777581997 | 18.33° C | 36% | 1015.6 hPa | 0 mm | - | 439 W/m² | - |
| 1777581692 | 18.33° C | 35% | 1015.8 hPa | 0 mm | - | 607 W/m² | - |
| 1777581386 | 18.33° C | 36% | 1015.8 hPa | 0 mm | - | 681 W/m² | - |
| 1777581081 | 17.78° C | 36% | 1015.6 hPa | 0 mm | - | 394 W/m² | - |
* Rain latest hour (hover to see other rain measurements)
** Current wind speed in m/s (hover to see current wind gust speed)